Flag for Italy Weather past 2 weeks in Bologna, Italy

Now
73 °F

Passing clouds.


Feels Like: 76 °F
Forecast: 65 / 87 °F
Wind: 3 mph from North

Location: Bologna / Borgo Panigale

Current Time: Aug 2, 2015 at 10:43:38 AM

Latest Report: Aug 2, 2015 at 9:50 AM


Visibility: N/A

Pressure: 30.04 "Hg

Humidity: 65%

Dew point: 61 °F

Location of BolognaLocation

Historic Weather in Bologna — Graph

°F

Bologna temperature yesterday

Maximum temperature yesterday: 84 °F (at 3:20 PM)
Minimum temperature yesterday: 64 °F (at 3:50 AM)
Average temperature yesterday: 73 °F

Past Weeks' High & Low Weather Summary

 TemperatureHumidityPressure
High100 °F (Jul 22, 4:20 PM)94% (Jul 31, 9:20 AM)30.01 "Hg (Jul 31, 9:20 AM)
Low64 °F (Aug 1, 3:50 AM)21% (Jul 28, 7:50 PM)29.59 "Hg (Jul 27, 4:50 PM)
Average82 °F55%29.82 "Hg
* Reported Jul 18 9:20 AM — Aug 2 9:20 AM, Bologna, Weather by CustomWeather, © 2015

Note: Actual official high and low records may vary slightly from our data, if they occured in-between our weather recording intervals... More about our weather records

Advertising

Bologna weather history for previous 24 hours

 ConditionsComfort  
Time TempWeatherWind HumidityBarometerVisibility
9:20 AM
Sun, Aug 2
72 °FPassing clouds.8 mph73%30.01 "HgN/A
8:50 AM70 °FPassing clouds.7 mph78%30.01 "HgN/A
8:20 AM68 °FSunny.9 mph83%30.01 "Hg10 mi
7:50 AM68 °FClear.6 mph78%30.01 "Hg6 mi
7:20 AM68 °FClear.6 mph83%30.01 "Hg5 mi
6:50 AM66 °FPassing clouds.3 mph88%30.01 "Hg5 mi
6:20 AM66 °FPassing clouds.6 mph88%30.01 "Hg5 mi
5:50 AM66 °FPassing clouds.5 mph88%30.01 "Hg5 mi
5:20 AM66 °FPassing clouds.7 mph88%30.01 "HgN/A
4:50 AM66 °FPassing clouds.7 mph88%30.01 "HgN/A
4:20 AM66 °FPassing clouds.7 mph83%30.01 "HgN/A
3:50 AM66 °FPassing clouds.6 mph83%30.01 "HgN/A
3:20 AM66 °FPassing clouds.5 mph88%30.01 "HgN/A
2:50 AM66 °FPassing clouds.5 mph88%30.01 "HgN/A
2:20 AM66 °FPassing clouds.5 mph88%30.01 "HgN/A
1:50 AM66 °FPassing clouds.5 mph88%30.01 "HgN/A
1:20 AM66 °FPassing clouds.5 mph88%30.01 "HgN/A
12:50 AM66 °FPassing clouds.5 mph88%30.01 "HgN/A
11:50 PM
Sat, Aug 1
66 °FPassing clouds.3 mph94%29.98 "HgN/A
11:20 PM66 °FPassing clouds.9 mph94%29.98 "Hg5 mi
10:50 PM66 °FPassing clouds.9 mph94%29.98 "Hg5 mi
10:20 PM66 °FLight rain. Passing clouds.3 mph94%29.98 "Hg5 mi
9:50 PM66 °FLight rain. Passing clouds.7 mph94%29.98 "Hg4 mi
9:20 PM66 °FThunderstorms. Partly sunny.8 mph94%29.98 "Hg4 mi
8:50 PM68 °FThunderstorms. Partly sunny.12 mph88%29.98 "Hg4 mi
8:20 PM72 °FThundershowers. Partly sunny.12 mph73%29.95 "Hg4 mi
7:50 PM73 °FPartly sunny.10 mph69%29.92 "HgN/A
7:20 PM75 °FPassing clouds.9 mph61%29.89 "HgN/A
6:50 PM75 °FPassing clouds.12 mph61%29.92 "HgN/A
6:20 PM75 °FScattered clouds.13 mph65%29.92 "HgN/A
5:50 PM81 °FScattered clouds.7 mph58%29.92 "HgN/A
5:20 PM82 °FPassing clouds.9 mph55%29.92 "HgN/A
4:50 PM82 °FPassing clouds.7 mph51%29.92 "HgN/A
4:20 PM84 °FPassing clouds.7 mph51%29.92 "HgN/A
3:50 PM84 °FPassing clouds.6 mph45%29.92 "HgN/A
3:20 PM84 °FPassing clouds.6 mph45%29.92 "HgN/A
2:50 PM82 °FSunny.7 mph42%29.92 "Hg10 mi
2:20 PM82 °FPassing clouds.7 mph45%29.95 "HgN/A
1:50 PM82 °FPassing clouds.9 mph42%29.92 "HgN/A
1:20 PM82 °FPassing clouds.9 mph45%29.95 "HgN/A
12:50 PM81 °FPassing clouds.7 mph48%29.95 "HgN/A
12:20 PM79 °FPassing clouds.8 mph54%29.95 "HgN/A
11:50 AM79 °FSunny.6 mph51%29.95 "Hg10 mi
11:20 AM77 °FPassing clouds.6 mph57%29.95 "HgN/A
10:50 AM75 °FPassing clouds.6 mph61%29.98 "HgN/A
10:20 AM75 °FPassing clouds.7 mph61%29.95 "HgN/A
Weather by CustomWeather, © 2015

See weather overviewHow to use our weather pages